sat.trackr.live / text

‹ back to catalog

STARLINK-31954

NORAD 60102 · 2024-117M

PAYLOAD ACTIVE UNKNOWN

§ Identity

Operator
Country
US
Launch date
2024-06-23
Launch site
AFETR
Launch vehicle
Mass (kg)
RCS (m²)

Purposes: comms

External: N2YO · Heavens-Above · Gunter

§ Orbital elements

Epoch: 2026-09-21T03:29:23.287488Z

Period
93.85 min
Inclination
53.1614°
Eccentricity
0.0001182
Mean motion
15.34389271 rev/d
Perigee alt
461.9 km
Apogee alt
463.5 km
Semi-major
6,840.9 km
B*
-1.5531e-5
RAAN
206.9830°
Arg perigee
83.1829°
Mean anomaly
276.9308°
Rev number
12,684

§ Raw data

STARLINK-319541 60102U 24117M   26264.14540842 -.00000901  00000+0 -15531-4 0  99922 60102  53.1614 206.9830 0001182  83.1829 276.9308 15.34389271126841

JSON: /api/v1/satellites/60102 · /tle

For live sub-satellite position, see the globe view (requires WebGL).

§ Visibility from observer

Set your observer location to see the next 7 days of passes ≥ 10°. The values pass through the URL so the page stays shareable.

No JS? Fill the form by hand. The geolocation button needs JavaScript.